Location: Newark
(34.3481°N, 134.0494°E)
Time: 14:38:01
(UTC+00:00)

A-11 Canister half - Visible Passes

Search period start: 29 January 2020 00:00
Search period end: 08 February 2020 00:00
Orbit: 1525 x 1684 km, 47.3° (Epoch: 28 January)

Date Brightness Start Highest point End Pass type
(mag) Time Alt. Az. Time Alt. Az. Time Alt. Az.
29 Jan 9.7 09:01:34 10° W 09:10:22 44° NNW 09:19:24 10° NE visible
29 Jan 9.6 11:08:43 10° WNW 11:17:28 39° N 11:17:50 39° NNE visible
29 Jan 10.9 13:14:14 10° NW 13:16:08 18° NW 13:16:08 18° NW visible
30 Jan 9.7 08:39:49 10° W 08:48:39 45° NNW 08:57:42 10° NE visible
30 Jan 9.6 10:47:02 10° WNW 10:55:43 39° N 10:57:27 36° NNE visible
30 Jan 10.6 12:52:36 10° NW 12:55:45 24° NW 12:55:45 24° NW visible
31 Jan 9.7 10:25:21 10° WNW 10:33:59 38° N 10:37:05 31° NE visible
31 Jan 10.2 12:30:58 10° NW 12:35:23 31° NW 12:35:23 31° NW visible
01 Feb 9.7 10:03:39 10° WNW 10:12:14 38° N 10:16:43 26° NE visible
01 Feb 9.8 12:09:20 10° NW 12:15:02 40° NW 12:15:02 40° NW visible
02 Feb 9.7 09:41:57 10° WNW 09:50:30 38° N 09:56:24 20° ENE visible
02 Feb 9.5 11:47:42 10° NW 11:54:43 50° NNW 11:54:43 50° NNW visible
02 Feb 11.3 13:52:58 10° WNW 13:53:01 10° WNW 13:53:01 10° WNW visible
03 Feb 9.7 09:20:14 10° WNW 09:28:46 37° N 09:36:06 15° ENE visible
03 Feb 9.2 11:26:05 10° NW 11:34:25 58° N 11:34:25 58° N visible
03 Feb 11.0 13:31:18 10° WNW 13:32:44 16° WNW 13:32:44 16° WNW visible
04 Feb 9.8 08:58:32 10° WNW 09:07:02 37° N 09:15:43 10° ENE visible
04 Feb 9.0 11:04:27 10° NW 11:13:46 58° NNE 11:14:10 58° NE visible
04 Feb 10.7 13:09:37 10° WNW 13:12:29 22° WNW 13:12:29 22° WNW visible
05 Feb 9.1 10:42:49 10° NW 10:52:04 56° NNE 10:53:58 49° ENE visible
05 Feb 10.3 12:47:57 10° WNW 12:52:17 30° WNW 12:52:17 30° WNW visible
06 Feb 9.2 10:21:11 10° NW 10:30:23 54° NNE 10:33:49 39° ENE visible
06 Feb 9.9 12:26:18 10° WNW 12:32:09 41° WNW 12:32:09 41° WNW visible
07 Feb 9.2 09:59:32 10° NW 10:08:41 53° NNE 10:13:45 29° E visible
07 Feb 9.4 12:04:39 10° WNW 12:12:05 55° W 12:12:05 55° W visible
